Sant Quirze del Valles, Spain
Current Conditions -  °F | °C
As of 6:30 AM on Saturday 25 Oct 2014 (Local Time) from LEBL Reporting Station
Clear Clear  
Wind Chill: 59°   Ceiling: Unl
Heat Index: 59°   Visibility: 6mi
Dew Point: 46°   Wind: 12mph
Humidity: 63%   Direction: 310°NW
Pressure: 30.03"   Gusts: NA
Location:  41.53°N, 2.08°E
Report Text: LEBL 250430Z 31010KT CAVOK 15/08 Q1017 NOSIG
Loading
Personal Weather Stations






























Interactive Weather Map
Tropical Storm Tracking
New forecast layout! Learn more

10-Day Weather Forecast

Advertisements
Track Severe Weather on mobile